Location: Bauen
(46.9356°N, 8.5784°E)
Time: 04:44:41
(UTC+00:00)

NOAA 6 - Pass Details

Date: 18 February 2020
Orbit: 772 x 788 km, 98.7° (Epoch: 31 March)

Event Time Altitude Azimuth Distance (km) Brightness Sun altitude
Rises 05:02:16 0° 16° (NNE) 3,290 7.5 -15.0°
Reaches altitude 10° 05:04:37 10° 19° (NNE) 2,355 6.7 -14.6°
Maximum altitude 05:09:48 68° 103° (ESE) 843 4.4 -13.7°
Drops below altitude 10° 05:14:55 10° 186° (S) 2,327 6.5 -12.8°
Sets 05:17:14 0° 189° (S) 3,248 7.2 -12.4°
